星链-31455 (STARLINK-31455 )
导读
STARLINK-31455是美国SpaceX公司星链(Starlink)星座的组网卫星,于2024年3月24日发射。星链项目旨在构建低轨全球卫星互联网,为全球尤其是偏远区域提供高速低时延宽带服务。该卫星采用平板设计、霍尔推进,具备自主避撞能力,运行在近地轨道,服役寿命约5-7年,退役后会受控坠入大气层烧毁,是星链大规模星座部署中的组成单元,服务全球互联覆盖。
Basic Information
目录编号:
59309
目录名称:
STARLINK-31455
国际标识:
2024-056P
轨道中心:
EARTH
卫星名称:
星链-31455
卫星全名:
星链-31455 (STARLINK-31455 )
卫星状态:
在轨 (已飞行894 天)
发射日期:
2024-03-24 UTC
国别 :
美国
(US)
星等 :
--
Orbit Information
| 数据来源 | 国际轨道数据 | AOE轨道数据 |
| 星历时间 | 2026-09-04T13:03:25+0800 12小时前 查看轨道信息 | 2026-09-03T08:00:00+0800 1天前 查看轨道信息 |
| 半长轴 | 6861.194km | 6861.21km |
| 偏心率 | 0.0001312 | 0.0001301 |
| 轨道倾角 | 43.003° | 43.002° |
| 近地点辐角 | 263.072° | 285.712° |
| 升交点赤经 | 299.332° | 306.174° |
| 平近点角 | 96.998° | 248.515° |
| 近地点 | 482.156km | 482.18km |
| 远地点 | 483.958km | 483.966km |
| 周期 | 94.267分钟 | 94.267分钟 |
| 每日圈数 | 15.275776 | 15.275721 |
Detailed Information
固有亮度:
5
最大亮度:
0.3
卫星平台:
Starlink v2.0 mini
覆盖范围:
全球
运营商:
太空探索技术公司
运营商所在国:
美国
制造商(研发单位):
太空探索技术公司
制造商所在国:
美国
使用方式:
暂无
Satellite Introduction
星链(Starlink)计划是由太空探索技术公司(SpaceX)提出的一个巨型低轨卫星互联网星座项目,计划在2019年至2024年间在太空搭建由约1.2万颗卫星组成的“星链”网络,其中1584颗将部署在地球上空550千米处的近地轨道,并从2020年开始工作。该卫星仍在工作。
2D Orbit Map
3D Orbit Map
Orbit Altitude Analysis Chart
Orbit Inclination Analysis Chart
Orbit Comprehensive Analysis Chart
View Comprehensive ChartConjunction Data List
| Event ID | Objects | TCA | Miss Dist (km) | Collision Risk Probability | Collision Risk Index (CRI) | Action |
|---|---|---|---|---|---|---|
| CDM_260906-231405-930906-275221 |
STARLINK-31455
(59309)
STARLINK-32756
(62752) | 2026-09-06T 23:14:06+0000 |
0.401 km
远距离 | 2.017156E-4 高风险 | 0.81 | |
| CDM_260907-004805-930906-275221 |
STARLINK-31455
(59309)
STARLINK-32756
(62752) | 2026-09-07T 00:48:15+0000 |
2.126 km
极远距离 | 1.443136E-6 低风险 | 0.38 | |
| CDM_260906-213905-930906-275221 |
STARLINK-31455
(59309)
STARLINK-32756
(62752) | 2026-09-06T 21:39:56+0000 |
2.869 km
极远距离 | 8.643322E-7 极低风险 | 0.34 |

